STARLINK-3857, 52494

Orbit data source: Space-Track

STARLINK-3857, 52494 is a payload satellite owned by SpaceX/Seattle (US) in LEO that was launched on Fri, 06 May 2022 UTC via an FALCON 9 launch vehicle from the Air Force Eastern Test Range (AFETR). Payload-class satellites include a variety of spacecraft equipped with specific instruments for various scientific and technological missions. These include communications satellites like Starlink; space stations such as the ISS; scientific satellites like the Hubble; Earth observation satellites from companies like Planet Labs, Umbra, and HawkEye 360; GPS; miniature CubeSats for education and research; and military/defense satellites.

Loading next visibility...
Identifier
52494, 2022-049AV
Orbit
LEO
Country
Flag of USUS
Related business
Manufacturer
SpaceX/Seattle
Mission
Operational Commercial Communications
Bus & Motor
STARLINK, Unknown motor
Mass
297 kg wet, ~220 kg dry
Launch date (UTC)
2022-05-06 (4 years ago)
Launch vehicle
FALCON 9
Launch site
Air Force Eastern Test Range (AFETR)
Object type
Payload
Rocket body
Debris
Shape & HBR
Box + 1 Pan, 10.1 m
Radar Cross Section
13.562 m², Large (>1 m²)

Expand to show TLE details & history
Last TLE update: 8 hours ago

TLE from 8 hours ago
0 STARLINK-3857
1 52494U 22049AV  26236.35333153 -.00030686  00000-0 -87960-3 0  9994
2 52494  53.1603   4.9723 0001319  69.2229 290.8915 15.35141847237862
Epoch: 2026-08-24T08:28Z
TLE epoch observation values (Epoch: 2026-08-24T08:28:47.844Z)
Latitude
-0.00002°
Longitude
-94.86332°
Altitude
461.079 km
Speed
7.638 km/s
True Right ascension
00h 19m 53s
True Declination
0° 00' 00"
Sunlit
Object was in full shadow at epoch
Visualization orbit readout
Latitude
Unknown
Longitude
Unknown
Altitude
Unknown
Speed
Unknown
Apparent Right ascension
Unknown
Apparent Declination
Unknown
Sunlit
N/A
Visualization observer readout
Local Sidereal Time
07:40:33
Azimuth
Unknown
Elevation
Unknown
Doppler factor
Unknown
Orbital elements
Apogee altitude
461.658 km
Perigee altitude
459.854 km
Semi-major axis
6,838.893 km
Eccentricity
0.00013
Inclination
53.1603°
RAAN
4.9723°
Arg. of periapsis
69.2229°
True anomaly
290.87738°
Mean anomaly
290.8915°
Eccentric anomaly
290.88444°
Mean motion
3.83764 °/min
Orbital period
93.81 mins
BSTAR
-0.0008796
Loading maneuver chart data...
Computing Atmospheric mass density...
Loading historical data...
Loading historical data...
Loading historical data...
Loading historical data...
Loading historical data...
Loading historical data...
Loading historical data...

Documentation

Showing up to 5 results
|